User: anonymous   Login
Location: Unspecified
(0.0000°N, 0.0000°E)
Time: 09:42:41
(UTC+00:00)
Language:

USA 247 - Orbit

View from above orbital plane
View from above orbital plane
View from above satellite
View from above satellite

Ground track
Ground track

The orbit data is extracted from the following two-line orbital elements,

1 39462U 13072A   14351.25197311 0.00000000  00000-0  00000-0 0    03
2 39462 123.0062 312.1824 0002999 107.7369 252.2631 13.41443555    09
Epoch (UTC): 17 December 2014 06:02:50
Eccentricity: 0.0002999
inclination: 123.0062°
perigee height: 1101 km
apogee height: 1106 km
right ascension of ascending node: 312.1824°
argument of perigee: 107.7369°
revolutions per day: 13.41443555
mean anomaly at epoch: 252.2631°
orbit number at epoch: 0

The dashed part of the orbit path shows where the satellite is in the earth's shadow,  

DLR